Princimar Hope — V7VN3 — position and weather

sailwx.info

Track history (hours):
 
Tides and Currents Weather Stations Pressure Air Temp Water Temp Dewpoint Dewpoint Depression Visibility Wind Speed Wind Dir Waves Ship Positions

Princimar Hope

Last reported at 2017-Oct-24 20:52 UTC. Time now 2017-Dec-17 19:44 UTC.
Position N 14°38' W 017°20'.
Warning: this ship's position is 53 days out of date.

Length 274 m; draft 9 m.

Type: Ship. MMSI: 538004163.

Date/timePositionNaut miles runAvg speedWind from/ knotsBaromVisibWave heightAir tempDewpointWater temp
2017-Oct-24 20:52N 14°38' W 017°20'0 0.0
2017-Oct-24 20:28N 14°38' W 017°20'0 0.0
2017-Oct-24 19:49N 14°38' W 017°20'0 0.0
2017-Oct-24 19:05N 14°38' W 017°20'0 0.1
2017-Oct-24 18:58N 14°38' W 017°20'0 0.0
2017-Oct-24 18:28N 14°38' W 017°20'0 0.0
2017-Oct-24 17:58N 14°38' W 017°20'0 0.0
2017-Oct-24 17:25N 14°38' W 017°20'0 0.1
2017-Oct-24 16:58N 14°38' W 017°20'0 0.0
2017-Oct-24 16:28N 14°38' W 017°20'0 0.0
2017-Oct-24 15:58N 14°38' W 017°20'0 0.0
2017-Oct-24 15:28N 14°38' W 017°20'0 0.0
2017-Oct-24 14:58N 14°38' W 017°20'0 0.0
2017-Oct-24 13:16N 14°38' W 017°20'0 0.0
2017-Oct-24 03:16N 14°38' W 017°20'  
2017-Oct-21 00:14N 27°35' W 015°16'312.7
2017-Oct-21 00:00N 27°38' W 015°14'612.9
2017-Oct-20 23:30N 27°44' W 015°11'612.6
2017-Oct-20 23:00N 27°49' W 015°08'612.7
2017-Oct-20 22:30N 27°55' W 015°06'612.8
2017-Oct-20 22:00N 28°01' W 015°03'612.8
2017-Oct-20 21:30N 28°07' W 015°01'612.6
2017-Oct-20 21:00N 28°13' W 014°58'612.4
2017-Oct-20 20:30N 28°19' W 014°56'612.6
2017-Oct-20 20:00N 28°25' W 014°54'612.6
2017-Oct-20 19:30N 28°31' W 014°52'611.7
2017-Oct-20 19:00N 28°37' W 014°49'612.2
2017-Oct-20 18:30N 28°43' W 014°48'612.2
2017-Oct-20 18:00N 28°48' W 014°46'  
2017-Oct-16 03:10N 48°19' W 005°55'1411.5
2017-Oct-16 01:54N 48°34' W 005°56'511.3
2017-Oct-16 01:30N 48°38' W 005°56'510.9
2017-Oct-16 01:00N 48°44' W 005°55'1010.6
2017-Oct-16 00:06N 48°52' W 005°49'2411.8
2017-Oct-15 22:06N 49°06' W 005°19'312.4
2017-Oct-15 21:51N 49°07' W 005°15'512.4
2017-Oct-15 21:29N 49°09' W 005°09'1112.9
2017-Oct-15 20:36N 49°15' W 004°54'313.2
2017-Oct-15 20:22N 49°16' W 004°50'813.3
2017-Oct-15 19:46N 49°21' W 004°40'413.5
2017-Oct-15 19:30N 49°22' W 004°35'3513.0
2017-Oct-15 16:49N 49°40' W 003°48'412.4
2017-Oct-15 16:30N 49°42' W 003°43'612.0
2017-Oct-15 16:00N 49°45' W 003°35'611.9
2017-Oct-15 15:30N 49°48' W 003°27'812.0
2017-Oct-15 14:53N 49°52' W 003°17'1112.1
2017-Oct-15 14:00N 49°57' W 003°02'612.5
2017-Oct-15 13:30N 49°60' W 002°54'612.9
2017-Oct-15 13:00N 50°01' W 002°44'1513.7
2017-Oct-15 11:56N 50°05' W 002°22'1514.8
2017-Oct-15 10:55N 50°09' W 001°59'615.3
2017-Oct-15 10:30N 50°11' W 001°50'1915.2
2017-Oct-15 09:16N 50°16' W 001°22'414.9
2017-Oct-15 09:00N 50°17' W 001°16'714.5
2017-Oct-15 08:30N 50°19' W 001°05'713.7
2017-Oct-15 07:58N 50°21' W 000°54'1112.7
2017-Oct-15 07:08N 50°24' W 000°38'111.0
2017-Oct-15 07:00N 50°25' W 000°36'610.5
2017-Oct-15 06:27N 50°26' W 000°27'510.4
2017-Oct-15 06:00N 50°27' W 000°20'510.4
2017-Oct-15 05:30N 50°28' W 000°12'510.4
2017-Oct-15 05:00N 50°29' W 000°04'510.4
2017-Oct-15 04:30N 50°31' E 000°04'510.6
2017-Oct-15 04:00N 50°32' E 000°12'510.8
2017-Oct-15 03:30N 50°33' E 000°20'611.4
2017-Oct-15 03:00N 50°35' E 000°29'611.8
2017-Oct-15 02:30N 50°37' E 000°37'612.3
2017-Oct-15 02:00N 50°40' E 000°46'612.8
2017-Oct-15 01:30N 50°44' E 000°54'713.1
2017-Oct-15 01:00N 50°47' E 001°03'613.0
2017-Oct-15 00:30N 50°51' E 001°12'612.7
2017-Oct-15 00:00N 50°55' E 001°19'612.6
2017-Oct-14 23:30N 51°00' E 001°25'1211.9
2017-Oct-14 22:30N 51°09' E 001°38'611.1
2017-Oct-14 22:00N 51°13' E 001°45'510.8
2017-Oct-14 21:31N 51°17' E 001°50'510.7
2017-Oct-14 21:00N 51°21' E 001°54'  
Track history (hours):
 
Tides and Currents Weather Stations Pressure Air Temp Water Temp Dewpoint Dewpoint Depression Visibility Wind Speed Wind Dir Waves Ship Positions

Princimar Hope

Last reported at 2017-Oct-24 20:52 UTC. Time now 2017-Dec-17 19:44 UTC.
Position N 14°38' W 017°20'.
Warning: this ship's position is 53 days out of date.

Length 274 m; draft 9 m.

Type: Ship. MMSI: 538004163.

Date/timePositionNaut miles runAvg speedWind from/ knotsBaromVisibWave heightAir tempDewpointWater temp
2017-Oct-24 20:52N 14°38' W 017°20'0 0.0
2017-Oct-24 20:28N 14°38' W 017°20'0 0.0
2017-Oct-24 19:49N 14°38' W 017°20'0 0.0
2017-Oct-24 19:05N 14°38' W 017°20'0 0.1
2017-Oct-24 18:58N 14°38' W 017°20'0 0.0
2017-Oct-24 18:28N 14°38' W 017°20'0 0.0
2017-Oct-24 17:58N 14°38' W 017°20'0 0.0
2017-Oct-24 17:25N 14°38' W 017°20'0 0.1
2017-Oct-24 16:58N 14°38' W 017°20'0 0.0
2017-Oct-24 16:28N 14°38' W 017°20'0 0.0
2017-Oct-24 15:58N 14°38' W 017°20'0 0.0
2017-Oct-24 15:28N 14°38' W 017°20'0 0.0
2017-Oct-24 14:58N 14°38' W 017°20'0 0.0
2017-Oct-24 13:16N 14°38' W 017°20'0 0.0
2017-Oct-24 03:16N 14°38' W 017°20'  
2017-Oct-21 00:14N 27°35' W 015°16'312.7
2017-Oct-21 00:00N 27°38' W 015°14'612.9
2017-Oct-20 23:30N 27°44' W 015°11'612.6
2017-Oct-20 23:00N 27°49' W 015°08'612.7
2017-Oct-20 22:30N 27°55' W 015°06'612.8
2017-Oct-20 22:00N 28°01' W 015°03'612.8
2017-Oct-20 21:30N 28°07' W 015°01'612.6
2017-Oct-20 21:00N 28°13' W 014°58'612.4
2017-Oct-20 20:30N 28°19' W 014°56'612.6
2017-Oct-20 20:00N 28°25' W 014°54'612.6
2017-Oct-20 19:30N 28°31' W 014°52'611.7
2017-Oct-20 19:00N 28°37' W 014°49'612.2
2017-Oct-20 18:30N 28°43' W 014°48'612.2
2017-Oct-20 18:00N 28°48' W 014°46'  
2017-Oct-16 03:10N 48°19' W 005°55'1411.5
2017-Oct-16 01:54N 48°34' W 005°56'511.3
2017-Oct-16 01:30N 48°38' W 005°56'510.9
2017-Oct-16 01:00N 48°44' W 005°55'1010.6
2017-Oct-16 00:06N 48°52' W 005°49'2411.8
2017-Oct-15 22:06N 49°06' W 005°19'312.4
2017-Oct-15 21:51N 49°07' W 005°15'512.4
2017-Oct-15 21:29N 49°09' W 005°09'1112.9
2017-Oct-15 20:36N 49°15' W 004°54'313.2
2017-Oct-15 20:22N 49°16' W 004°50'813.3
2017-Oct-15 19:46N 49°21' W 004°40'413.5
2017-Oct-15 19:30N 49°22' W 004°35'3513.0
2017-Oct-15 16:49N 49°40' W 003°48'412.4
2017-Oct-15 16:30N 49°42' W 003°43'612.0
2017-Oct-15 16:00N 49°45' W 003°35'611.9
2017-Oct-15 15:30N 49°48' W 003°27'812.0
2017-Oct-15 14:53N 49°52' W 003°17'1112.1
2017-Oct-15 14:00N 49°57' W 003°02'612.5
2017-Oct-15 13:30N 49°60' W 002°54'612.9
2017-Oct-15 13:00N 50°01' W 002°44'1513.7
2017-Oct-15 11:56N 50°05' W 002°22'1514.8
2017-Oct-15 10:55N 50°09' W 001°59'615.3
2017-Oct-15 10:30N 50°11' W 001°50'1915.2
2017-Oct-15 09:16N 50°16' W 001°22'414.9
2017-Oct-15 09:00N 50°17' W 001°16'714.5
2017-Oct-15 08:30N 50°19' W 001°05'713.7
2017-Oct-15 07:58N 50°21' W 000°54'1112.7
2017-Oct-15 07:08N 50°24' W 000°38'111.0
2017-Oct-15 07:00N 50°25' W 000°36'610.5
2017-Oct-15 06:27N 50°26' W 000°27'510.4
2017-Oct-15 06:00N 50°27' W 000°20'510.4
2017-Oct-15 05:30N 50°28' W 000°12'510.4
2017-Oct-15 05:00N 50°29' W 000°04'510.4
2017-Oct-15 04:30N 50°31' E 000°04'510.6
2017-Oct-15 04:00N 50°32' E 000°12'510.8
2017-Oct-15 03:30N 50°33' E 000°20'611.4
2017-Oct-15 03:00N 50°35' E 000°29'611.8
2017-Oct-15 02:30N 50°37' E 000°37'612.3
2017-Oct-15 02:00N 50°40' E 000°46'612.8
2017-Oct-15 01:30N 50°44' E 000°54'713.1
2017-Oct-15 01:00N 50°47' E 001°03'613.0
2017-Oct-15 00:30N 50°51' E 001°12'612.7
2017-Oct-15 00:00N 50°55' E 001°19'612.6
2017-Oct-14 23:30N 51°00' E 001°25'1211.9
2017-Oct-14 22:30N 51°09' E 001°38'611.1
2017-Oct-14 22:00N 51°13' E 001°45'510.8
2017-Oct-14 21:31N 51°17' E 001°50'510.7
2017-Oct-14 21:00N 51°21' E 001°54'  

Dump ship's entire track history